Location: Killam
(52.7910°N, 111.8608°W)
Time: 21:34:03
(UTC+00:00)

A-11 Canister half - Pass Details

Date: 16 February 2026
Orbit: 1525 x 1683 km, 47.3° (Epoch: 9 March)

Event Time Altitude Azimuth Distance (km) Brightness Sun altitude
Rises 08:16:01 0° 283° (WNW) 4,689 - -48.9°
Reaches altitude 10° 08:21:18 10° 258° (WSW) 3,721 - -48.7°
Maximum altitude 08:25:04 13° 234° (SW) 3,493 - -48.6°
Drops below altitude 10° 08:28:52 10° 210° (SSW) 3,755 - -48.4°
Sets 08:34:17 0° 185° (S) 4,769 - -48.1°
